GFSNIL_925_spd_159.txt.gz
Wind_Speed
22 19 17 14 14 15 14 12 14 10 7 9 9 9 7 7 8 10 9 9 9 13
23 22 21 19 18 16 17 8 11 7 9 9 9 9 9 10 10 10 8 9 9 9
22 21 22 20 17 19 13 14 5 11 10 11 10 7 8 14 14 12 12 13 12 10
22 22 23 21 19 18 15 13 7 9 8 9 13 12 13 12 16 8 11 12 12 9
22 22 23 24 24 21 21 17 16 13 14 13 14 13 11 12 12 11 13 11 15 13
24 22 22 23 22 23 22 20 19 19 18 16 13 13 14 15 15 14 15 15 17 16
24 24 23 20 21 22 22 21 21 20 19 17 16 15 16 17 16 17 15 14 16 19
21 21 21 21 20 21 20 22 21 21 21 19 18 19 18 17 16 15 14 15 14 19
14 16 15 15 19 19 20 22 22 23 23 22 20 21 20 17 16 15 16 16 16 18
18 15 15 13 14 18 20 21 22 24 24 23 23 22 17 18 20 19 18 19 18 17
6 8 10 10 10 13 17 20 20 22 23 22 21 20 19 19 18 20 21 20 21 20
3 6 6 6 8 7 10 13 16 16 17 18 16 17 17 19 18 21 21 21 19 19
6 4 5 5 7 5 4 3 1 3 2 1 4 7 11 15 12 17 18 16 17 20
6 12 5 4 3 4 2 3 4 7 8 5 5 6 5 5 6 10 13 13 11 11

GFSNIL_925_spd_162.txt.gz
Wind_Speed
21 19 19 15 16 14 20 20 25 22 17 13 10 11 9 6 8 10 11 12 9 12
25 25 20 20 16 20 12 6 25 19 17 15 11 13 12 11 10 12 10 8 11 13
24 28 26 22 21 19 16 6 11 14 15 14 14 14 11 12 13 15 12 12 6 8
27 28 28 28 24 23 15 11 18 8 10 9 14 12 13 13 14 10 9 13 11 9
29 26 25 28 24 23 22 18 16 19 16 20 14 10 11 15 15 9 11 11 12 12
27 27 26 27 27 22 21 21 19 23 19 15 13 14 15 16 17 15 12 13 10 14
30 29 28 27 30 28 28 27 26 23 20 20 19 19 19 19 17 17 16 16 18 15
32 26 26 29 25 32 28 30 30 28 23 23 22 21 21 22 20 19 19 17 15 15
23 23 19 20 25 21 21 23 24 24 23 25 24 24 24 20 22 22 18 17 16 17
14 23 25 32 29 23 24 23 21 20 21 22 24 25 24 22 22 19 19 20 19 20
10 14 25 25 20 16 19 19 18 20 19 20 20 22 26 22 20 21 21 17 17 19
6 16 17 5 7 12 10 7 7 13 13 13 13 19 23 25 18 17 21 21 21 20
10 9 11 11 15 4 3 4 4 6 6 5 1 4 6 7 13 16 18 17 20 18
4 4 6 3 3 1 4 4 5 2 1 4 5 7 6 2 2 3 7 6 6 8

GFSNIL_925_spd_165.txt.gz
Wind_Speed
29 22 23 15 12 17 26 25 22 25 23 19 18 15 10 7 5 3 6 7 8 7
32 29 25 22 14 19 16 10 16 28 24 18 17 12 11 10 7 6 8 7 8 9
33 32 28 23 22 16 17 10 11 23 19 17 18 14 11 11 8 9 11 9 8 3
35 31 32 31 22 24 15 15 19 19 19 17 15 14 12 13 12 11 11 13 15 9
33 32 31 33 30 26 22 20 20 16 22 21 18 13 15 15 17 14 10 13 11 8
33 32 31 29 31 31 27 24 23 17 26 21 16 16 16 16 16 14 15 13 13 9
32 32 30 30 30 33 29 25 23 22 20 21 17 18 22 17 17 17 17 16 16 15
18 23 31 29 29 32 33 30 29 27 26 21 22 22 23 20 21 20 19 18 18 15
26 22 29 24 22 25 29 33 29 28 27 27 25 26 24 24 23 23 23 21 20 19
17 15 18 23 26 29 23 29 26 27 27 25 24 24 22 24 23 25 26 24 22 20
14 13 16 16 23 27 40 34 27 25 27 26 24 23 25 29 26 19 22 23 21 20
20 19 26 12 13 33 46 28 23 25 24 22 23 25 26 26 25 24 21 20 20 19
6 7 12 13 14 22 24 9 15 10 8 6 9 4 5 8 13 17 22 17 13 15
6 6 3 9 16 15 4 10 11 9 8 6 3 0 1 1 4 4 3 9 9 7

GFSNIL_925_spd_168.txt.gz
Wind_Speed
30 24 27 20 19 34 31 32 27 25 23 22 19 17 15 13 12 9 10 8 7 8
37 29 27 24 18 21 31 33 26 25 26 27 22 20 19 17 13 10 8 9 9 11
38 36 33 26 24 21 22 24 21 25 31 29 26 21 20 20 16 13 12 11 10 9
37 39 37 34 30 28 23 24 26 21 20 30 27 24 23 21 18 16 13 10 14 14
36 37 38 39 35 30 28 26 24 22 21 30 28 23 24 21 19 19 15 16 16 15
36 36 38 38 39 37 31 27 26 29 29 28 27 25 22 21 22 20 18 17 15 14
38 38 36 37 37 37 38 31 29 29 28 27 27 26 23 23 21 22 19 19 20 17
34 27 20 27 30 29 28 33 33 32 32 30 26 27 24 22 21 23 20 21 20 21
32 28 29 22 24 24 18 19 21 30 32 30 28 29 26 24 24 24 23 23 22 22
30 30 28 20 19 22 23 18 18 22 23 33 32 30 28 25 25 26 25 24 25 24
20 21 22 24 23 27 28 28 27 23 24 28 33 30 28 26 26 26 24 20 25 27
12 15 18 19 19 23 14 12 24 29 25 24 31 30 28 28 26 27 28 26 20 21
7 8 16 20 9 13 5 4 7 13 7 11 19 15 16 19 22 22 25 22 23 22
7 4 6 11 13 11 8 6 8 18 14 7 7 6 4 4 6 8 7 14 18 14

GFSNIL_925_spd_171.txt.gz
Wind_Speed
30 27 23 22 26 28 29 27 24 24 22 20 20 16 14 15 15 13 13 13 12 11
31 30 26 25 23 26 30 32 31 28 25 23 21 20 16 17 15 13 13 11 12 12
35 35 34 29 26 26 22 24 29 27 27 25 23 23 20 19 18 18 14 11 11 11
36 37 36 37 33 28 25 22 23 24 27 27 27 27 25 21 22 21 20 15 13 14
35 36 37 39 40 35 29 27 26 24 26 25 25 28 28 24 23 22 21 19 16 16
35 34 36 38 39 39 33 31 30 26 26 26 28 29 30 27 27 26 24 23 20 19
34 35 28 25 24 32 33 34 31 30 29 28 31 29 30 29 27 26 25 24 22 21
40 32 32 25 20 24 27 27 32 34 30 30 31 31 30 30 29 28 27 25 24 22
32 36 31 30 33 27 27 15 22 28 34 32 33 33 30 30 32 29 27 26 24 23
27 31 32 31 33 34 32 29 23 16 17 30 33 34 32 31 30 31 29 28 26 24
14 22 23 23 24 27 34 33 35 29 22 19 20 26 31 31 32 33 32 29 27 26
3 6 11 17 17 19 23 22 23 26 27 26 29 26 26 27 30 33 33 29 25 24
5 1 4 8 11 14 10 13 12 14 24 33 32 25 22 20 21 25 30 28 24 26
4 1 2 6 8 5 6 4 1 5 7 12 13 12 11 9 9 13 12 12 15 21

GFSNIL_925_spd_174.txt.gz
Wind_Speed
33 29 25 23 20 21 21 22 21 19 19 18 16 17 14 12 12 11 11 11 11 12
37 34 29 27 24 24 24 24 23 24 21 20 19 18 17 14 12 11 10 11 11 13
40 36 31 28 27 25 25 24 25 25 26 24 23 21 19 18 14 13 12 12 11 11
40 37 32 30 30 27 26 24 23 23 22 25 25 25 22 22 19 17 16 15 15 14
36 33 34 32 32 31 29 26 26 23 21 22 23 23 23 24 26 22 18 18 17 16
33 30 33 32 32 31 30 31 28 27 24 24 24 24 24 24 25 26 22 20 20 20
34 37 34 29 27 26 26 28 32 32 30 29 26 27 26 24 20 27 25 24 23 22
31 31 29 28 25 21 19 19 22 30 34 32 30 29 27 25 24 27 27 26 25 25
27 28 29 30 30 29 27 29 23 23 29 33 35 31 30 28 27 27 29 30 28 27
17 21 24 26 28 30 31 28 23 32 25 28 31 33 31 30 29 27 29 31 31 28
4 10 17 21 23 28 31 29 31 30 27 19 17 19 25 28 27 29 31 30 30 31
1 3 7 12 14 18 23 22 21 22 23 23 22 20 18 20 21 25 32 34 32 32
8 6 6 6 9 11 12 11 11 13 15 17 20 25 29 28 28 24 26 29 32 31
10 8 6 6 7 7 5 5 5 6 7 10 12 14 19 20 22 20 18 16 17 21